{"data":{"norad_id":60933,"intl_designator":"2024-155K","name":"STARLINK-11207 [DTC]","alt_names":[],"object_type":"PAYLOAD","status":"ACTIVE","operator":null,"country":"US","launch_date":"2024-08-31","launch_site_code":"AFWTR","launch_vehicle":null,"mission":null,"orbit_class":"UNKNOWN","rcs_meters":null,"size_class":null,"mass_kg":null,"dimensions":null,"purposes":["comms"],"wikipedia_slug":null,"has_3d_model":false,"image_url":null,"decayed_at":null,"tle_current":{"epoch":"2026-09-21T20:09:46.240128Z","epoch_age_seconds":72494,"freshness":"FRESH","line1":"1 60933U 24155K   26264.84011852 -.00000422  00000+0  13686-5 0  9994","line2":"2 60933  53.1586  94.0351 0000692  96.8613 263.2484 15.69706431119218","mean_motion":15.69706431,"eccentricity":6.92e-5,"inclination_deg":53.1586,"raan_deg":94.0351,"arg_perigee_deg":96.8613,"mean_anomaly_deg":263.2484,"bstar":1.3686e-6,"rev_number":11921,"period_min":91.736898795951,"perigee_km":359.27070267271,"apogee_km":360.20322442927,"semimajor_km":6737.873963551,"source":"CELESTRAK","updated_at":"2026-09-22T09:00:49.290909Z"}}}